Flag for U.S.A. Weather past 2 weeks in Sunrise, Florida, U.S.A.

Now
79 °F

Sunny.


Feels Like: 81 °F
Forecast: 68 / 83 °F
Wind: 6 mph from Southeast

Location: Fort Lauderdale Executive Airport

Current Time: Dec 27, 2014 at 5:16:37 PM

Latest Report: Dec 27, 2014 at 3:53 PM


Visibility: 10 mi

Pressure: 30.16 "Hg

Humidity: 65%

Dew point: 66 °F

Location of SunriseLocation

Historic Weather in Sunrise — Graph

°F

Sunrise temperature yesterday

Maximum temperature yesterday: 74 °F (at 2:57 PM)
Minimum temperature yesterday: 65 °F (at 2:53 AM)
Average temperature yesterday: 70 °F

Past Weeks' High & Low Weather Summary

 TemperatureHumidityPressure
High84 °F (Dec 24, 11:53 AM)96% (Dec 23, 6:53 AM)30.24 "Hg (Dec 23, 6:53 AM)
Low54 °F (Dec 13, 6:53 AM)17% (Dec 27, 10:53 AM)29.92 "Hg (Dec 24, 5:53 AM)
Average69 °F71%30.08 "Hg
* Reported Dec 12 3:53 PM — Dec 27 3:53 PM, Sunrise, Weather by CustomWeather, © 2014

Note: Actual official high and low records may vary slightly from our data, if they occured in-between our weather recording intervals... More about our weather records

Advertising

Sunrise weather history for previous 24 hours

 ConditionsComfort  
Time TempWeatherWind HumidityBarometerVisibility
3:53 PM
Dec 27
79 °FSunny.6 mph65%30.16 "Hg10 mi
2:53 PM80 °FScattered clouds.9 mph62%30.15 "Hg10 mi
1:53 PM81 °FScattered clouds.9 mph62%30.17 "Hg10 mi
12:53 PM81 °FScattered clouds.6 mph67%30.19 "Hg10 mi
11:53 AM79 °FMostly cloudy.6 mph22%30.22 "Hg10 mi
10:53 AM78 °FMostly cloudy.6 mph17%30.24 "Hg10 mi
9:53 AM77 °FScattered clouds.3 mph18%30.24 "Hg10 mi
8:53 AM72 °FMore clouds than sun.No wind19%30.23 "Hg10 mi
7:53 AM70 °FPartly sunny.No wind22%30.21 "Hg5 mi
6:53 AM70 °FPassing clouds.No wind21%30.19 "Hg7 mi
5:53 AM70 °FPassing clouds.5 mph21%30.17 "Hg9 mi
4:53 AM67 °FDense fog.No wind24%30.15 "Hg1 mi
3:53 AM69 °FHaze.No wind21%30.15 "Hg4 mi
3:03 AM69 °FPassing clouds.No wind25%30.15 "Hg10 mi
3:00 AM70 °FDense fog.No wind25%30.15 "Hg1 mi
1:53 AM70 °FFog.No wind93%30.16 "Hg1 mi
12:53 AM71 °FFog.No wind93%30.16 "Hg1 mi
12:02 AM71 °FFog.No wind96%30.17 "Hg1 mi
11:53 PM
Dec 26
72 °FFog.No wind93%30.17 "Hg1 mi
10:53 PM73 °FMostly cloudy.No wind94%30.19 "Hg8 mi
9:53 PM73 °FPassing clouds.No wind90%30.19 "Hg10 mi
8:53 PM73 °FOvercast.No wind94%30.19 "Hg10 mi
7:53 PM73 °FOvercast.No wind94%30.17 "Hg10 mi
6:53 PM73 °FOvercast.No wind94%30.16 "Hg10 mi
5:53 PM73 °FOvercast.3 mph94%30.16 "Hg10 mi
5:00 PM74 °FFog.3 mph94%30.14 "Hg5 mi
Weather by CustomWeather, © 2014

See weather overviewHow to use our weather pages